Linn Creek, MO

10:53 PM CST on December 03, 2016 (GMT -0600)
Camdenton

Weather History for KH21 - April, 2014

Change the Weather History Date:

Thursday, April 3, 2014

  Actual Average (KAIZ) Record (KAIZ)
Temperature  
Mean Temperature 64 °F -  
Max Temperature 77 °F 62 °F 91 °F (2011)
Min Temperature 51 °F 41 °F 28 °F (2002)
Degree Days  
Heating Degree Days 1    
Growing Degree Days 14 (Base 50)    
Moisture  
Dew Point 61 °F    
Average Humidity 84    
Maximum Humidity 94    
Minimum Humidity 54    
Precipitation  
Precipitation 0.71 in - - ()
Sea Level Pressure  
Sea Level Pressure 29.65 in    
Wind  
Wind Speed 10 mph (SSE)    
Max Wind Speed 20 mph    
Max Gust Speed 28 mph    
Visibility 10 miles    
Events Rain , Thunderstorm    
Averages and records for this station are not official NWS values.
T = Trace of Precipitation, MM = Missing Value Source: NWS Daily Summary

Daily Weather History Graph

Daily Weather History Graph

Search for Another Location

Airport or City:

Trip Planner

Search our weather history database for the weather conditions in past years. The results will help you decide how hot, cold, wet, or windy it might be!

Date:

Astronomy

Apr. 03, 2014 Rise Set
Actual Time 6:52 AM CDT 7:35 PM CDT
Civil Twilight 6:26 AM CDT 8:02 PM CDT
Nautical Twilight 5:54 AM CDT 8:33 PM CDT
Astronomical Twilight 5:22 AM CDT 9:06 PM CDT
Moon 9:25 AM CDT (4/3) 11:52 PM CDT (4/3)
Length of Visible Light 13h 35m
Length of Day
12h 42m
Waxing Crescent, 17% of the Moon is Illuminated
Apr 3
Waxing Crescent
Apr 7
First Quarter
Apr 15
Full
Apr 22
Last Quarter
Apr 29
New

Hourly Weather History & Observations

Time (CDT) Temp. Dew Point Humidity Pressure Visibility Wind Dir Wind Speed Gust Speed Precip Events Conditions
12:15 AM 64.4 °F 62.6 °F 94% 29.73 in 10.0 mi SE 13.8 mph 20.7 mph N/A   Mostly Cloudy
12:35 AM 64.4 °F 62.6 °F 94% 29.71 in 10.0 mi SE 12.7 mph - N/A   Overcast
12:55 AM 64.4 °F 62.6 °F 94% 29.71 in 10.0 mi SE 16.1 mph 19.6 mph N/A   Overcast
1:15 AM 66.2 °F 62.6 °F 88% 29.70 in 10.0 mi SE 13.8 mph - N/A   Overcast
1:35 AM 66.2 °F 62.6 °F 88% 29.68 in 10.0 mi SE 13.8 mph 21.9 mph N/A   Overcast
1:55 AM 66.2 °F 62.6 °F 88% 29.69 in 10.0 mi SSE 13.8 mph - N/A   Overcast
2:15 AM 68.0 °F 62.6 °F 83% 29.68 in 10.0 mi SE 12.7 mph 21.9 mph N/A   Overcast
2:35 AM 68.0 °F 62.6 °F 83% 29.68 in 10.0 mi SSE 13.8 mph 19.6 mph N/A   Overcast
2:55 AM 68.0 °F 62.6 °F 83% 29.67 in 10.0 mi SSE 11.5 mph 19.6 mph N/A   Overcast
3:15 AM 68.0 °F 62.6 °F 83% 29.67 in 10.0 mi SSE 13.8 mph - N/A   Overcast
3:35 AM 66.2 °F 62.6 °F 88% 29.67 in 10.0 mi SSE 11.5 mph 17.3 mph N/A   Mostly Cloudy
3:55 AM 66.2 °F 62.6 °F 88% 29.67 in 10.0 mi SSE 11.5 mph - N/A   Mostly Cloudy
4:15 AM 66.2 °F 62.6 °F 88% 29.67 in 10.0 mi SSE 6.9 mph - N/A   Overcast
4:35 AM 66.2 °F 62.6 °F 88% 29.66 in 10.0 mi SE 8.1 mph - N/A   Overcast
4:55 AM 66.2 °F 62.6 °F 88% 29.66 in 10.0 mi SE 3.5 mph - N/A Thunderstorm Overcast
5:15 AM 64.4 °F 62.6 °F 94% 29.66 in 10.0 mi SE 6.9 mph - N/A   Overcast
5:35 AM 64.4 °F 62.6 °F 94% 29.67 in 10.0 mi SSE 5.8 mph - N/A   Overcast
5:55 AM 66.2 °F 62.6 °F 88% 29.67 in 10.0 mi SE 4.6 mph - N/A   Overcast
6:15 AM 64.4 °F 60.8 °F 88% 29.67 in 10.0 mi NNE 3.5 mph - N/A   Overcast
6:35 AM 62.6 °F 59.0 °F 88% 29.66 in 10.0 mi East 3.5 mph - N/A   Mostly Cloudy
6:55 AM 64.4 °F 60.8 °F 88% 29.67 in 10.0 mi SSE 5.8 mph - N/A   Scattered Clouds
7:15 AM 64.4 °F 60.8 °F 88% 29.67 in 10.0 mi SE 5.8 mph - N/A   Scattered Clouds
7:35 AM 66.2 °F 60.8 °F 83% 29.68 in 10.0 mi SSE 6.9 mph - N/A   Mostly Cloudy
7:55 AM 68.0 °F 62.6 °F 83% 29.69 in 10.0 mi South 5.8 mph - N/A   Overcast
8:15 AM 68.0 °F 62.6 °F 83% 29.69 in 10.0 mi South 5.8 mph - N/A   Overcast
8:35 AM 69.8 °F 62.6 °F 78% 29.68 in 10.0 mi SSE 9.2 mph - N/A   Overcast
8:55 AM 69.8 °F 62.6 °F 78% 29.67 in 10.0 mi SSE 9.2 mph - N/A   Overcast
9:15 AM 69.8 °F 62.6 °F 78% 29.67 in 10.0 mi South 9.2 mph - N/A   Overcast
9:35 AM 69.8 °F 62.6 °F 78% 29.67 in 10.0 mi SSW 10.4 mph - N/A Thunderstorm Overcast
9:55 AM 69.8 °F 62.6 °F 78% 29.65 in 10.0 mi South 10.4 mph - N/A   Overcast
10:15 AM 71.6 °F 64.4 °F 78% 29.65 in 10.0 mi SSW 8.1 mph 16.1 mph N/A   Overcast
10:35 AM 73.4 °F 64.4 °F 73% 29.64 in 10.0 mi SSW 10.4 mph 19.6 mph N/A   Overcast
10:55 AM 73.4 °F 64.4 °F 73% 29.64 in 10.0 mi SW 11.5 mph - N/A   Overcast
11:15 AM 73.4 °F 64.4 °F 73% 29.63 in 10.0 mi SSW 10.4 mph - N/A   Overcast
11:35 AM 73.4 °F 62.6 °F 69% 29.62 in 10.0 mi SW 9.2 mph - N/A   Overcast
11:55 AM 73.4 °F 62.6 °F 69% 29.63 in 10.0 mi WSW 8.1 mph - N/A Thunderstorm Overcast
12:15 PM 66.2 °F 60.8 °F 83% 29.61 in 10.0 mi North 6.9 mph - 0.01 in Rain , Thunderstorm Light Thunderstorms and Rain
12:35 PM 62.6 °F 60.8 °F 94% 29.64 in 7.0 mi SSE 12.7 mph 17.3 mph 0.03 in Rain , Thunderstorm Thunderstorms and Rain
12:55 PM 62.6 °F 59.0 °F 88% 29.66 in 5.0 mi SSW 3.5 mph - 0.15 in Rain , Thunderstorm Heavy Thunderstorms and Rain
1:15 PM 60.8 °F 57.2 °F 88% 29.64 in 1.5 mi SSE 6.9 mph - 0.46 in Rain , Thunderstorm Heavy Thunderstorms and Rain
1:35 PM 60.8 °F 59.0 °F 94% 29.63 in 10.0 mi East 8.1 mph - 0.48 in Rain , Thunderstorm Light Thunderstorms and Rain
1:55 PM 60.8 °F 59.0 °F 94% 29.64 in 10.0 mi SE 5.8 mph - 0.48 in Thunderstorm Overcast
2:15 PM 62.6 °F 59.0 °F 88% 29.63 in 10.0 mi East 11.5 mph - N/A Thunderstorm Overcast
2:35 PM 62.6 °F 59.0 °F 88% 29.63 in 10.0 mi NNE 5.8 mph - N/A Thunderstorm Overcast
2:55 PM 64.4 °F 60.8 °F 88% 29.60 in 10.0 mi East 6.9 mph - N/A Thunderstorm Overcast
3:15 PM 68.0 °F 60.8 °F 78% 29.60 in 10.0 mi ESE 5.8 mph 10.4 mph N/A   Overcast
3:35 PM 69.8 °F 62.6 °F 78% 29.59 in 10.0 mi East 8.1 mph - N/A   Overcast
3:55 PM 69.8 °F 62.6 °F 78% 29.57 in 10.0 mi East 3.5 mph - N/A   Overcast
4:15 PM 71.6 °F 62.6 °F 73% 29.55 in 10.0 mi East 4.6 mph - N/A   Mostly Cloudy
4:35 PM 73.4 °F 62.6 °F 69% 29.56 in 10.0 mi Calm Calm - N/A   Mostly Cloudy
4:55 PM 77.0 °F 60.8 °F 57% 29.56 in 10.0 mi South 18.4 mph 21.9 mph N/A   Mostly Cloudy
5:15 PM 77.0 °F 59.0 °F 54% 29.58 in 10.0 mi SSW 19.6 mph 27.6 mph N/A Thunderstorm Thunderstorm
5:35 PM 66.2 °F 55.4 °F 68% 29.58 in 10.0 mi WNW 9.2 mph 23.0 mph N/A Thunderstorm Overcast
5:55 PM 62.6 °F 59.0 °F 88% 29.63 in 7.0 mi West 15.0 mph - 0.03 in Rain , Thunderstorm Heavy Thunderstorms and Rain
6:15 PM 62.6 °F 59.0 °F 88% 29.60 in 10.0 mi West 4.6 mph - N/A Thunderstorm Thunderstorm
6:35 PM 60.8 °F 59.0 °F 94% 29.61 in 7.0 mi SE 8.1 mph - 0.02 in Rain , Thunderstorm Heavy Thunderstorms and Rain
6:55 PM 60.8 °F 59.0 °F 94% 29.60 in 10.0 mi South 3.5 mph - 0.04 in Rain , Thunderstorm Light Thunderstorms and Rain
7:15 PM 60.8 °F 59.0 °F 94% 29.59 in 10.0 mi ESE 3.5 mph - N/A Thunderstorm Scattered Clouds
7:35 PM 60.8 °F 59.0 °F 94% 29.63 in 7.0 mi Calm Calm - N/A Thunderstorm Scattered Clouds
7:55 PM 60.8 °F 59.0 °F 94% 29.63 in 7.0 mi NNW 8.1 mph - N/A Rain , Thunderstorm Light Thunderstorms and Rain
8:15 PM 60.8 °F 59.0 °F 94% 29.62 in 10.0 mi Calm Calm - 0.01 in Thunderstorm Overcast
8:35 PM 60.8 °F 59.0 °F 94% 29.61 in 10.0 mi WNW 3.5 mph - 0.01 in   Mostly Cloudy
8:55 PM 62.6 °F 57.2 °F 82% 29.61 in 10.0 mi WSW 6.9 mph - 0.01 in   Scattered Clouds
9:15 PM 62.6 °F 55.4 °F 77% 29.63 in 10.0 mi SW 6.9 mph - N/A   Scattered Clouds
9:35 PM 62.6 °F 59.0 °F 88% 29.64 in 10.0 mi West 15.0 mph 19.6 mph N/A   Mostly Cloudy
11:15 PM 51.8 °F 48.2 °F 88% 29.72 in 10.0 mi West 10.4 mph - N/A   Clear
11:35 PM 51.8 °F 46.4 °F 82% 29.73 in 10.0 mi WSW 15.0 mph 20.7 mph N/A   Mostly Cloudy
11:55 PM 51.8 °F 46.4 °F 82% 29.74 in 10.0 mi WSW 10.4 mph 18.4 mph N/A   Scattered Clouds